Regional Weather Roundup
Issued by NWS

Home | Current Version | Previous Version | Graphics & Text | Print | Product List | Glossary On
Versions: 1 2 3 4 5 6 7 8 9 10 11 12 13 14 15 16 17 18 19 20 21 22 23 24 25 26 27 28 29 30 31 32 33 34 35 36 37 38 39 40 41 42 43 44 45 46 47 48 49 50
189
ASUS45 KSLC 300710
RWRUT

UTAH REGIONAL WEATHER ROUNDUP
NATIONAL WEATHER SERVICE SALT LAKE CITY UT
100 AM MDT SAT JUL 30 2016

UTZ001>011-023>025-300800-

NORTHERN UTAH

CITY           SKY/WX    TMP DP  RH WIND       PRES   REMARKS
BRIGHAM CITY     N/A     75  46  36 NE3       29.94S
HILL AFB       MOCLDY    77  39  25 SE16      29.98S
LOGAN          CLEAR     62  50  64 N3        29.97S
OGDEN          MOCLDY    77  40  26 S9        29.95S
PROVO AIRPORT  CLEAR     70  45  40 SE6       29.99R
SALT LAKE CITY MOCLDY    82  39  21 SE8       29.93S
VERNAL         CLEAR     66  40  38 S6        30.01S
WENDOVER       PTCLDY    79  37  22 S5        29.95R
HEBER CITY     CLEAR     59  41  51 CALM      30.08S
WEST JORDAN    CLEAR     77  37  24 SW8       29.98

$$

UTZ012>022-026-027-300800-

SOUTHERN/CENTRAL UTAH

CITY           SKY/WX    TMP DP  RH WIND       PRES   REMARKS
BLANDING       MOCLDY    76  44  31 SE5       30.16R
BRYCE CANYON   MOCLDY    62  40  44 W3        30.28F
CEDAR CITY     PTCLDY    76  43  30 S8        30.11S
DELTA          MOCLDY    79  37  22 SE10      30.01F
MILFORD        MOCLDY    72  47  40 S8        30.04R
MOAB/CYNLANDS  MOCLDY    84  33  16 W9        29.93R
PRICE          PTCLDY    72  35  25 N9        30.09S
ST GEORGE      SUNNY     88  48  25 N7        29.90R

$$

REGIONAL REPORTS     COLORADO/ARIZONA

CITY           SKY/WX    TMP DP  RH WIND       PRES   REMARKS
CRAIG, CO      CLEAR     54  42  64 SE5       30.12R
GRAND JUNCTION CLEAR     71  36  27 E8        29.98R
RIFLE          CLOUDY    68  37  32 E5        30.07R
MONTROSE       CLOUDY    73  37  27 E8        30.09S
CORTEZ         CLEAR     74  45  35 VRB3      30.12S
PAGE, AZ       PTCLDY    88  43  20 VRB6      29.96S
GRAND CANYON   MOCLDY    64  52  64 CALM      30.23R
KINGMAN        CLOUDY    93  51  23 NW10      29.93R THUNDER HX  90
FLAGSTAFF      MOCLDY    65  48  54 SW10      30.27R

$$

REGIONAL REPORTS    NEVADA/IDAHO/WYOMING

CITY           SKY/WX    TMP DP  RH WIND       PRES   REMARKS
LAS VEGAS, NV  MOCLDY    99  46  16 CALM      29.78S HX  95
ELY            PTCLDY    57  50  77 S9        30.19S
ELKO           MOCLDY    81  40  23 SW10      30.04R
POCATELLO, ID  CLEAR     80  37  21 SW8       29.94R
BURLEY         CLEAR     66  49  54 SW8       29.91F
EVANSTON, WY   CLEAR     66  31  27 SE6       30.20F
ROCK SPRINGS   CLEAR     66  40  38 NE5       30.16S
KEMMERER         N/A    N/A N/A N/A NW10      30.21S

$$




USA.gov is the U.S. government's official web portal to all federal, state and local government web resources and services.